Tracking 28081 objects as of 27-Sep-2023
HD Live streaming from Space Station
objects crossing your sky now

STARLINK-5326

Track STARLINK-5326 now!
10-day predictions
STARLINK-5326 is classified as:


NORAD ID: 55656
Int'l Code: 2023-021AE
Perigee: 577.0 km
Apogee: 581.4 km
Inclination: 70.0 °
Period: 96.1 minutes
Semi major axis: 6950 km
RCS: Unknown
Launch date: February 17, 2023
Source: United States (US)
Launch site: AIR FORCE WESTERN TEST RANGE (AFWTR)
Your satellite tracking list
Your tracking list is empty




NASA's NSSDC Master Catalog

Two Line Element Set (TLE):
1 55656U 23021AE  23270.08943239 -.00000048  00000-0  38043-5 0  9993
2 55656  69.9986 279.8671 0003142 267.6447  92.4352 14.98329143 34491
Source of the keplerian elements: AFSPC